EW9322 Weather Reports


time (UTC)temp
C
wind
direction
speed
KPH
gust
KPH
rain 1hr
cm
rain 24hr
cm
rain mn
cm
humidity
%
barometer
mb
20260507124733 4 288 1.6 9.7 0.00 0.00 0.00 90 1024.3
20260507124233 4 271 3.2 9.7 0.00 0.00 0.00 90 1024.3
20260507123732 4 293 1.6 8.0 0.00 0.00 0.00 90 1024.3
20260507123232 3 310 0.0 3.2 0.00 0.00 0.00 89 1024.1
20260507122732 3 310 0.0 3.2 0.00 0.00 0.00 89 1024.0
20260507122228 3 310 0.0 3.2 0.00 0.00 0.00 89 1024.0
20260507121728 3 310 0.0 3.2 0.00 0.00 0.00 89 1024.0
20260507121230 3 310 0.0 1.6 0.00 0.00 0.00 89 1024.0
20260507120728 3 310 0.0 1.6 0.00 0.00 0.00 89 1023.9
20260507120228 3 310 0.0 1.6 0.00 0.00 0.00 89 1023.9
20260507115729 3 310 0.0 0.0 0.00 0.00 0.00 88 1023.9
20260507115233 3 310 0.0 0.0 0.00 0.00 0.00 88 1023.9
20260507115228 3 310 0.0 0.0 0.00 0.00 0.00 88 1023.8
20260507114230 3 310 0.0 1.6 0.00 0.00 0.00 88 1023.8
20260507113734 3 310 0.0 1.6 0.00 0.00 0.00 88 1023.8
20260507113729 3 310 0.0 1.6 0.00 0.00 0.00 88 1023.8
20260507113229 3 310 0.0 1.6 0.00 0.00 0.00 88 1023.8
20260507112226 3 309 0.0 3.2 0.00 0.00 0.00 88 1023.8
20260507111730 3 325 0.0 1.6 0.00 0.00 0.00 88 1024.0
20260507111726 3 309 0.0 3.2 0.00 0.00 0.00 88 1023.9
20260507110726 3 355 0.0 1.6 0.00 0.00 0.00 88 1024.0
20260507110227 3 355 0.0 1.6 0.00 0.00 0.00 87 1023.9
20260507105731 4 355 0.0 0.0 0.00 0.00 0.00 87 1023.9
20260507105727 3 355 0.0 1.6 0.00 0.00 0.00 87 1023.9
20260507104726 4 355 0.0 0.0 0.00 0.00 0.00 87 1023.9
20260507104226 4 355 0.0 0.0 0.00 0.00 0.00 86 1023.8
20260507103726 4 355 0.0 0.0 0.00 0.00 0.00 87 1023.9
20260507103224 4 355 0.0 0.0 0.00 0.00 0.00 87 1023.9
20260507102724 4 355 0.0 0.0 0.00 0.00 0.00 87 1024.0
20260507102224 4 355 0.0 0.0 0.00 0.00 0.00 86 1023.9
20260507101725 4 355 0.0 0.0 0.00 0.00 0.00 86 1023.8
20260507101223 4 355 0.0 0.0 0.00 0.00 0.00 86 1023.8
20260507100723 4 355 0.0 0.0 0.00 0.00 0.00 85 1023.8
20260507100225 4 355 0.0 0.0 0.00 0.00 0.00 85 1023.9
20260507095725 4 355 0.0 0.0 0.00 0.00 0.00 85 1023.8
20260507095224 5 355 0.0 0.0 0.00 0.00 0.00 85 1024.0
20260507094723 5 355 0.0 0.0 0.00 0.00 0.00 85 1024.0
20260507094227 5 355 0.0 3.2 0.00 0.00 0.00 84 1023.9
20260507094223 5 355 0.0 0.0 0.00 0.00 0.00 84 1024.0
20260507093721 5 355 0.0 0.0 0.00 0.00 0.00 84 1023.9
20260507093332 5 355 1.6 3.2 0.00 0.00 0.00 82 1023.9
20260507092723 5 355 0.0 3.2 0.00 0.00 0.00 83 1024.0
20260507092221 5 355 1.6 3.2 0.00 0.00 0.00 83 1024.0
20260507091221 5 355 1.6 3.2 0.00 0.00 0.00 82 1023.9
20260507090723 6 26 0.0 3.2 0.00 0.00 0.00 81 1023.8
20260507090222 6 121 0.0 3.2 0.00 0.00 0.00 81 1023.8
20260507085725 6 121 0.0 0.0 0.00 0.00 0.00 80 1023.8
20260507085719 6 121 0.0 3.2 0.00 0.00 0.00 80 1023.8
20260507084720 6 121 0.0 0.0 0.00 0.00 0.00 80 1023.7
20260507084221 6 121 0.0 0.0 0.00 0.00 0.00 80 1023.6
20260507083717 6 121 0.0 0.0 0.00 0.00 0.00 79 1023.6
20260507083219 6 121 0.0 0.0 0.00 0.00 0.00 79 1023.6
20260507082718 6 121 0.0 0.0 0.00 0.00 0.00 79 1023.5
20260507082219 6 121 0.0 0.0 0.00 0.00 0.00 79 1023.5
20260507081719 6 121 0.0 0.0 0.00 0.00 0.00 79 1023.4
20260507081222 6 121 0.0 3.2 0.00 0.00 0.00 79 1023.4
20260507081218 6 121 0.0 3.2 0.00 0.00 0.00 79 1023.4
20260507080829 6 121 0.0 3.2 0.00 0.00 0.00 79 1023.5
20260507075717 6 121 0.0 1.6 0.00 0.00 0.00 79 1023.4
20260507075223 6 121 1.6 6.4 0.00 0.00 0.00 79 1023.1
20260507075217 6 121 0.0 6.4 0.00 0.00 0.00 79 1023.3
20260507074215 6 74 1.6 11.3 0.00 0.00 0.00 79 1023.0
20260507073714 6 77 1.6 11.3 0.00 0.00 0.00 79 1023.3
20260507073217 7 11 0.0 3.2 0.00 0.00 0.00 80 1023.8
20260507073213 6 92 1.6 9.7 0.00 0.00 0.00 80 1023.5
20260507072219 7 327 0.0 3.2 0.00 0.00 0.00 79 1024.5
20260507072214 6 355 0.0 3.2 0.00 0.00 0.00 79 1024.6
20260507071212 7 327 0.0 3.2 0.00 0.00 0.00 78 1024.7
20260507070712 7 9 0.0 4.8 0.00 0.00 0.00 78 1024.5
20260507070211 7 9 0.0 4.8 0.00 0.00 0.00 78 1024.6
20260507065708 7 346 0.0 1.6 0.00 0.00 0.00 78 1024.7
20260507065213 7 13 0.0 3.2 0.00 0.00 0.00 78 1024.7
20260507065207 7 13 0.0 1.6 0.00 0.00 0.00 78 1024.7
20260507064209 7 13 0.0 3.2 0.00 0.00 0.00 78 1024.7
20260507063707 7 65 0.0 3.2 0.00 0.00 0.00 77 1024.6
20260507063207 7 24 0.0 3.2 0.00 0.00 0.00 77 1024.6
20260507062703 7 27 0.0 4.8 0.00 0.00 0.00 77 1024.8
20260507062203 7 331 0.0 4.8 0.00 0.00 0.00 78 1024.8
20260507061703 7 355 1.6 6.4 0.00 0.00 0.00 78 1024.9
20260507061203 7 5 0.0 6.4 0.00 0.00 0.00 78 1024.9
20260507060708 7 36 0.0 3.2 0.00 0.00 0.00 77 1024.8
20260507060703 7 336 0.0 3.2 0.00 0.00 0.00 77 1024.8
20260507055705 7 36 0.0 3.2 0.00 0.00 0.00 76 1024.5
20260507055203 7 13 0.0 3.2 0.00 0.00 0.00 75 1024.3
20260507054704 7 348 0.0 3.2 0.00 0.00 0.00 75 1024.1
20260507054204 7 300 1.6 4.8 0.00 0.00 0.00 74 1023.9
20260507053709 7 355 1.6 3.2 0.00 0.00 0.00 74 1023.6
20260507053704 7 72 1.6 4.8 0.00 0.00 0.00 74 1023.7
20260507052704 7 332 1.6 3.2 0.00 0.00 0.00 74 1023.9
20260507052206 7 340 1.6 6.4 0.00 0.00 0.00 73 1024.0
20260507052201 7 0 1.6 6.4 0.00 0.00 0.00 72 1023.9
20260507051200 7 17 3.2 6.4 0.00 0.00 0.00 72 1024.0
20260507050705 7 351 1.6 6.4 0.00 0.00 0.00 70 1023.9
20260507050701 7 350 1.6 6.4 0.00 0.00 0.00 71 1023.9
20260507045657 8 355 1.6 6.4 0.00 0.00 0.00 70 1023.9
20260507045158 8 25 1.6 4.8 0.00 0.00 0.00 70 1023.8
20260507044700 8 12 1.6 6.4 0.00 0.00 0.00 70 1023.6
20260507044656 7 40 1.6 6.4 0.00 0.00 0.00 70 1023.7
20260507043656 7 15 1.6 4.8 0.00 0.00 0.00 71 1023.6
20260507043156 8 106 1.6 4.8 0.00 0.00 0.00 71 1023.5
20260507042657 8 355 1.6 4.8 0.00 0.00 0.00 71 1023.1
20260507042154 8 323 1.6 4.8 0.00 0.00 0.00 71 1023.1
20260507041654 8 18 1.6 4.8 0.00 0.00 0.00 71 1023.5
20260507041152 8 40 1.6 4.8 0.00 0.00 0.00 71 1023.5
20260507040652 8 36 1.6 6.4 0.00 0.00 0.00 71 1023.3
20260507040152 8 294 1.6 6.4 0.00 0.00 0.00 70 1023.0
20260507035652 8 79 1.6 4.8 0.00 0.00 0.00 70 1022.8
20260507035152 8 24 3.2 4.8 0.00 0.00 0.00 70 1022.7
20260507034652 8 53 1.6 6.4 0.00 0.00 0.00 70 1022.6
20260507034152 8 9 1.6 6.4 0.00 0.00 0.00 70 1022.6
20260507033654 8 348 1.6 6.4 0.00 0.00 0.00 70 1022.7
20260507033151 9 5 3.2 6.4 0.00 0.03 0.00 70 1022.6
20260507032649 9 20 1.6 4.8 0.00 0.03 0.00 69 1022.5
20260507032149 9 15 1.6 4.8 0.00 0.03 0.00 69 1022.6
20260507031649 10 5 1.6 6.4 0.00 0.03 0.00 69 1022.5
20260507031150 10 11 3.2 6.4 0.00 0.03 0.00 69 1022.4
20260507030650 10 9 3.2 6.4 0.00 0.03 0.00 69 1022.4
20260507030153 10 346 3.2 8.0 0.00 0.03 0.00 68 1022.0
20260507030149 10 355 3.2 8.0 0.00 0.03 0.00 68 1022.1
20260507025150 11 15 3.2 6.4 0.00 0.03 0.00 67 1022.1
20260507024649 11 5 3.2 6.4 0.00 0.03 0.00 65 1021.9
20260507024150 11 19 3.2 8.0 0.00 0.03 0.00 63 1021.8
20260507023650 12 16 3.2 8.0 0.00 0.03 0.00 61 1021.6
20260507023150 12 344 3.2 6.4 0.00 0.03 0.00 59 1021.1
20260507022650 13 31 3.2 6.4 0.00 0.03 0.00 56 1020.7
20260507022149 13 54 1.6 9.7 0.00 0.03 0.00 55 1020.8
20260507021650 13 284 1.6 9.7 0.00 0.03 0.00 52 1021.0
20260507021154 13 355 3.2 8.0 0.00 0.03 0.00 50 1020.5
20260507021150 13 17 3.2 8.0 0.00 0.03 0.00 50 1020.8
20260507020149 13 17 3.2 6.4 0.00 0.03 0.00 50 1020.3
20260507015650 13 65 3.2 6.4 0.00 0.03 0.00 50 1019.9
20260507015150 13 79 3.2 9.7 0.00 0.03 0.00 50 1019.4
20260507014650 14 54 3.2 9.7 0.00 0.03 0.00 49 1019.3
20260507014147 14 24 3.2 6.4 0.00 0.03 0.00 49 1019.2
20260507013649 14 46 3.2 9.7 0.00 0.03 0.00 49 1019.1
20260507013145 14 42 4.8 11.3 0.00 0.03 0.00 49 1018.8
20260507012645 14 69 4.8 11.3 0.00 0.05 0.00 48 1018.4
20260507012150 14 76 4.8 11.3 0.00 0.05 0.00 48 1018.2
20260507012144 15 63 4.8 14.5 0.00 0.05 0.00 48 1018.0
20260507011756 15 67 4.8 14.5 0.00 0.05 0.00 48 1017.9
20260507010641 15 67 4.8 11.3 0.00 0.05 0.00 48 1017.5
20260507010139 15 65 4.8 17.7 0.00 0.05 0.00 47 1017.2
20260507005639 15 62 6.4 17.7 0.00 0.05 0.00 47 1017.0
20260507005143 15 66 4.8 19.3 0.00 0.05 0.00 46 1016.9
20260507005139 15 78 6.4 19.3 0.00 0.05 0.00 46 1017.0
20260507004752 15 67 3.2 11.3 0.00 0.05 0.00 46 1016.8
20260507004251 16 63 4.8 20.9 0.00 0.05 0.00 45 1016.8
20260507003139 16 47 4.8 20.9 0.00 0.05 0.00 45 1016.8
20260507002640 16 96 4.8 16.1 0.00 0.05 0.00 44 1016.8
20260507002137 16 71 4.8 14.5 0.00 0.05 0.00 44 1016.8
20260507001637 16 69 6.4 22.5 0.00 0.05 0.00 43 1016.4
20260507001142 16 94 4.8 19.3 0.00 0.05 0.00 43 1016.4
20260507001138 16 65 6.4 22.5 0.00 0.05 0.00 43 1016.4
20260507000749 17 70 4.8 12.9 0.00 0.05 0.00 43 1016.3
20260506235637 17 64 6.4 19.3 0.00 0.05 0.00 42 1016.0
20260506235137 17 63 6.4 19.3 0.00 0.05 0.00 42 1016.0
20260506234638 17 69 8.0 22.5 0.00 0.05 0.00 41 1015.8
20260506234136 18 59 8.0 24.1 0.00 0.05 0.00 40 1015.8
20260506233636 18 87 8.0 24.1 0.00 0.05 0.00 40 1015.6
20260506233136 18 77 6.4 19.3 0.00 0.05 0.00 40 1015.6
20260506232635 18 105 6.4 16.1 0.00 0.05 0.00 40 1015.6
20260506232135 18 116 6.4 19.3 0.00 0.05 0.00 40 1015.9
20260506231636 17 94 6.4 19.3 0.00 0.05 0.00 40 1016.0
20260506231136 18 61 6.4 22.5 0.00 0.05 0.00 40 1015.8
20260506230635 18 112 6.4 22.5 0.00 0.05 0.00 40 1015.8
20260506230135 18 72 6.4 16.1 0.00 0.05 0.00 39 1015.8
20260506225635 18 33 6.4 16.1 0.00 0.05 0.00 39 1015.6
20260506225135 18 57 4.8 11.3 0.00 0.05 0.00 39 1015.8
20260506224635 18 74 4.8 12.9 0.00 0.05 0.00 39 1015.5
20260506224140 18 62 4.8 11.3 0.00 0.05 0.00 38 1015.4
20260506224135 18 78 4.8 12.9 0.00 0.05 0.00 38 1015.4
20260506223748 18 68 4.8 11.3 0.00 0.05 0.00 38 1015.5
20260506222636 18 70 4.8 14.5 0.00 0.05 0.00 38 1015.5
20260506222135 18 76 6.4 19.3 0.00 0.05 0.00 37 1015.5
20260506221639 20 99 4.8 16.1 0.00 0.05 0.00 36 1015.6
20260506221635 19 53 6.4 19.3 0.00 0.05 0.00 36 1015.6
20260506220638 20 110 3.2 16.1 0.00 0.05 0.00 35 1015.6
20260506220633 20 47 4.8 16.1 0.00 0.05 0.00 34 1015.6
20260506215635 20 67 3.2 14.5 0.00 0.05 0.00 34 1015.5
20260506215133 20 112 3.2 12.9 0.00 0.05 0.00 34 1015.6
20260506214631 20 98 3.2 11.3 0.00 0.05 0.00 34 1015.6
20260506214132 20 113 3.2 9.7 0.00 0.05 0.00 35 1015.6
20260506213633 20 89 3.2 16.1 0.00 0.05 0.00 35 1015.8
20260506213131 20 68 3.2 16.1 0.00 0.05 0.00 35 1015.8
20260506212635 20 65 3.2 14.5 0.00 0.05 0.00 35 1016.0
20260506212631 20 26 3.2 12.9 0.00 0.05 0.00 36 1015.9
20260506211636 20 28 3.2 9.7 0.00 0.05 0.00 37 1016.1
20260506211632 20 130 3.2 14.5 0.00 0.05 0.00 36 1016.1
20260506210637 20 111 3.2 9.7 0.00 0.05 0.00 36 1016.2
20260506210632 20 94 3.2 9.7 0.00 0.05 0.00 36 1016.2
20260506210130 20 355 3.2 6.4 0.00 0.05 0.00 36 1016.1
20260506205130 20 54 3.2 9.7 0.00 0.05 0.00 35 1016.2
20260506204629 20 75 3.2 9.7 0.00 0.05 0.00 36 1016.2
20260506204129 20 128 3.2 12.9 0.00 0.05 0.00 36 1016.3
20260506203629 20 185 4.8 12.9 0.00 0.05 0.00 35 1016.3
20260506203128 20 123 4.8 11.3 0.00 0.05 0.00 37 1016.4
20260506202628 19 119 4.8 12.9 0.00 0.05 0.00 37 1016.4
20260506202135 19 137 4.8 14.5 0.00 0.05 0.00 37 1016.5
20260506202129 20 171 4.8 14.5 0.00 0.05 0.00 37 1016.5
20260506201126 19 125 3.2 11.3 0.00 0.05 0.00 37 1016.5
20260506200626 19 121 1.6 11.3 0.00 0.05 0.00 38 1016.6
20260506200129 18 155 4.8 16.1 0.00 0.05 0.00 38 1016.6
20260506200124 19 43 4.8 16.1 0.00 0.05 0.00 38 1016.6
20260506195125 18 75 3.2 12.9 0.00 0.05 0.00 39 1016.6
20260506194625 18 65 3.2 11.3 0.00 0.05 0.00 39 1016.8
20260506194126 18 5 4.8 12.9 0.00 0.05 0.00 39 1017.0
20260506193625 18 161 4.8 12.9 0.00 0.05 0.00 39 1016.8
20260506193125 18 51 4.8 12.9 0.00 0.05 0.00 40 1016.8
20260506192625 18 163 4.8 12.9 0.00 0.05 0.00 38 1017.0
20260506192123 18 108 4.8 14.5 0.00 0.05 0.00 40 1017.1
20260506191623 18 119 3.2 14.5 0.00 0.05 0.00 40 1017.1
20260506191124 17 180 3.2 11.3 0.00 0.05 0.00 42 1017.3
20260506190622 17 107 4.8 11.3 0.00 0.05 0.00 40 1017.3
20260506190121 18 41 3.2 9.7 0.00 0.05 0.00 40 1017.4
20260506185618 18 126 1.6 11.3 0.00 0.05 0.00 39 1017.5
20260506185119 18 224 1.6 11.3 0.00 0.05 0.00 41 1017.5
20260506184620 17 113 3.2 14.5 0.00 0.05 0.00 42 1017.7
20260506184117 17 99 4.8 14.5 0.00 0.05 0.00 43 1017.9
20260506183621 17 144 3.2 14.5 0.00 0.05 0.00 43 1018.0
20260506183617 17 233 4.8 14.5 0.00 0.05 0.00 42 1018.0
20260506182622 17 101 3.2 12.9 0.00 0.05 0.00 44 1018.3
20260506182618 17 115 3.2 12.9 0.00 0.05 0.00 44 1018.0
20260506182229 16 88 3.2 9.7 0.00 0.05 0.00 45 1018.2
20260506181117 17 109 3.2 11.3 0.00 0.05 0.00 44 1018.2
20260506180623 16 180 3.2 12.9 0.00 0.05 0.00 48 1018.6
20260506180618 16 57 3.2 11.3 0.00 0.05 0.00 46 1018.2
20260506180117 16 104 3.2 11.3 0.00 0.05 0.00 47 1018.2
20260506175721 16 199 3.2 12.9 0.00 0.05 0.00 48 1018.4
20260506174619 15 81 1.6 11.3 0.00 0.05 0.00 51 1018.7
20260506174615 16 76 1.6 8.0 0.00 0.05 0.00 49 1018.6
20260506173613 15 82 3.2 11.3 0.00 0.05 0.00 53 1018.6
20260506173110 15 248 4.8 14.5 0.00 0.05 0.00 51 1019.0
20260506172610 15 180 4.8 14.5 0.00 0.05 0.00 50 1019.0
20260506172110 15 158 3.2 16.1 0.00 0.05 0.00 50 1018.7
20260506171610 15 89 3.2 16.1 0.00 0.05 0.00 51 1018.8
20260506171110 15 109 3.2 12.9 0.00 0.05 0.00 52 1018.9
20260506170616 14 141 1.6 9.7 0.00 0.05 0.00 54 1018.9
20260506170612 14 118 3.2 8.0 0.00 0.05 0.00 52 1018.8
20260506165611 14 107 1.6 9.7 0.00 0.05 0.00 54 1018.9
20260506165115 13 64 1.6 4.8 0.00 0.05 0.00 58 1019.0
20260506165111 13 344 1.6 4.8 0.00 0.05 0.00 56 1018.9
20260506164722 13 56 1.6 4.8 0.00 0.05 0.00 58 1018.9
20260506163612 13 111 1.6 6.4 0.00 0.05 0.00 59 1018.9
20260506163111 12 88 1.6 6.4 0.00 0.05 0.00 61 1019.0
20260506162615 11 133 1.6 8.0 0.00 0.05 0.00 64 1018.9
20260506162610 12 291 1.6 6.4 0.00 0.05 0.00 62 1019.0
20260506161609 11 205 1.6 8.0 0.00 0.05 0.00 64 1018.9
20260506161108 11 234 3.2 9.7 0.00 0.05 0.00 66 1019.0
20260506160610 11 68 3.2 9.7 0.00 0.05 0.00 65 1019.0
20260506160109 11 81 1.6 8.0 0.00 0.05 0.00 67 1018.9
20260506155610 10 301 3.2 12.9 0.00 0.05 0.00 68 1018.8
20260506155110 10 61 3.2 12.9 0.00 0.05 0.00 69 1018.7
20260506154609 10 114 3.2 9.7 0.00 0.05 0.00 71 1018.7
20260506154108 9 115 1.6 9.7 0.00 0.05 0.00 72 1018.7
20260506153609 9 252 1.6 12.9 0.00 0.05 0.00 74 1018.7
20260506153109 8 123 3.2 12.9 0.00 0.05 0.00 76 1018.7
20260506152608 8 93 3.2 11.3 0.00 0.05 0.00 76 1018.6
20260506152109 8 120 3.2 9.7 0.00 0.05 0.00 77 1018.4
20260506151610 8 99 1.6 9.7 0.00 0.05 0.00 78 1018.4
20260506151109 8 99 1.6 8.0 0.00 0.05 0.00 79 1018.7
20260506150609 7 171 1.6 8.0 0.00 0.05 0.00 79 1018.6
20260506150111 7 96 1.6 6.4 0.00 0.05 0.00 80 1018.6
20260506145608 7 55 1.6 4.8 0.00 0.05 0.00 80 1018.6
20260506145115 7 131 1.6 11.3 0.00 0.05 0.00 81 1018.3
20260506145108 7 82 3.2 9.7 0.00 0.05 0.00 80 1018.4
20260506144609 7 111 1.6 9.7 0.00 0.05 0.00 81 1018.4
20260506143611 7 166 3.2 11.3 0.00 0.05 0.00 81 1018.3
20260506143607 7 157 3.2 9.7 0.00 0.05 0.00 82 1018.2
20260506142605 7 150 1.6 9.7 0.00 0.05 0.00 82 1018.2
20260506142106 7 69 1.6 6.4 0.00 0.05 0.00 83 1018.3
20260506141603 7 93 3.2 16.1 0.00 0.05 0.00 83 1018.3
20260506141102 6 94 3.2 16.1 0.00 0.05 0.00 83 1018.2
20260506140601 6 93 4.8 16.1 0.00 0.05 0.00 83 1018.2
20260506140059 6 113 6.4 16.1 0.00 0.05 0.00 82 1018.2
20260506135602 6 191 4.8 12.9 0.00 0.05 0.00 82 1018.2
20260506135558 6 134 4.8 12.9 0.00 0.05 0.00 82 1018.1
20260506134556 6 103 4.8 12.9 0.00 0.05 0.00 82 1018.2
20260506134054 7 136 4.8 16.1 0.00 0.05 0.00 82 1018.0
20260506133552 7 157 6.4 16.1 0.00 0.05 0.00 81 1018.0
20260506133052 7 202 6.4 14.5 0.00 0.05 0.00 81 1017.9
20260506132551 7 117 6.4 17.7 0.00 0.05 0.00 81 1017.9
20260506132056 7 38 4.8 16.1 0.00 0.05 0.00 81 1018.0
20260506132050 7 146 6.4 17.7 0.00 0.05 0.00 81 1018.0
20260506131050 7 117 3.2 16.1 0.00 0.05 0.00 81 1018.1
20260506130551 7 115 3.2 12.9 0.00 0.05 0.00 81 1018.0
20260506130055 7 85 3.2 14.5 0.00 0.05 0.00 81 1018.1
20260506130051 7 93 3.2 14.5 0.00 0.05 0.00 81 1018.0